User: anonymous   Login
Location: Unspecified
(0.0000°N, 0.0000°E)
Time: 09:31:29
(UTC+02:00)
Language:

Centaur D-1AR AC-41 - Orbit

View from above orbital plane
View from above orbital plane
View from above satellite
View from above satellite

Ground track
Ground track

The orbit data is extracted from the following two-line orbital elements,

1 10976U 78068B   17290.84354321  .00000049  00000-0  68247-3 0  9994
2 10976  21.3213 158.7616 7172434 335.5889  15.6648  2.22310940318982
Epoch (UTC): 17 October 2017 20:14:42
Eccentricity: 0.7172434
inclination: 21.3213°
perigee height: 634 km
apogee height: 36207 km
right ascension of ascending node: 158.7616°
argument of perigee: 335.5889°
revolutions per day: 2.22310940
mean anomaly at epoch: 15.6648°
orbit number at epoch: 31898

The dashed part of the orbit path shows where the satellite is in the earth's shadow,  

DLR